This demonstration page uses our WeatherBlox Daily Observations layout. Learn more.

Left ArrowRight Arrow

39.95238, -75.16362

Hourly Observations for August 15, 2016

Temp ( °F °C ) Dew Point ( °F °C ) Humidity (%) Winds ( mph kmh ) Pressure ( in mb ) Visibility ( mi km ) Precip ( " mm )
12:54 am 00:54 Cloudy 79 26.1 73 22.8 82 82 W 8 13 30.07 1018 10 16 0.00 0.03
1:54 am 01:54 Mostly Cloudy 78 25.6 73 22.8 85 85 WSW 7 11 30.07 1018 10 16 0.00 0.00
2:54 am 02:54 Partly Cloudy 78 25.6 72 22.2 82 82 W 3 6 30.09 1019 10 16 0.00 0.00
3:54 am 03:54 Partly Cloudy 77 25 71 21.7 82 82 WNW 10 17 30.10 1019 10 16 0.00 0.00
4:54 am 04:54 Mostly Clear 77 25 70 21.1 79 79 WNW 7 11 30.11 1020 10 16 0.00 0.00
5:54 am 05:54 Partly Cloudy 76 24.4 70 21.1 82 82 VRB 6 9 30.12 1020 10 16 0.00 0.00
6:54 am 06:54 Mostly Cloudy 76 24.4 70 21.1 82 82 NNW 8 13 30.14 1021 10 16 0.00 0.00
7:54 am 07:54 Mostly Cloudy 78 25.6 70 21.1 76 76 NNW 7 11 30.15 1021 10 16 0.00 0.00
8:54 am 08:54 Mostly Cloudy 80 26.7 70 21.1 71 71 N 6 9 30.16 1021 10 16 0.00 0.00
9:54 am 09:54 Mostly Cloudy 83 28.3 70 21.1 65 65 NNE 8 13 30.16 1021 10 16 0.00 0.00
10:54 am 10:54 Partly Cloudy 85 29.4 70 21.1 61 61 VRB 3 6 30.16 1022 10 16 0.00 0.00
11:54 am 11:54 Partly Cloudy 87 30.6 70 21.1 57 57 S 6 9 30.16 1022 10 16 0.00 0.00
12:54 pm 12:54 Partly Cloudy 89 31.7 70 21.1 53 53 S 7 11 30.16 1022 10 16 0.00 0.00
1:54 pm 13:54 Partly Cloudy 91 32.8 69 20.6 49 49 VRB 7 11 30.16 1021 10 16 0.00 0.00
2:54 pm 14:54 Partly Cloudy 93 33.9 68 20 44 44 W 13 20 30.15 1021 10 16 0.00 0.00
3:54 pm 15:54 Partly Cloudy 93 33.9 69 20.6 46 46 NNW 13 20 30.13 1020 10 16 0.00 0.00
4:54 pm 16:54 Partly Cloudy 93 33.9 68 20 44 44 WNW 9 15 30.13 1020 10 16 0.00 0.00
5:54 pm 17:54 Partly Cloudy 93 33.9 67 19.4 42 42 N 7 11 30.14 1021 10 16 0.00 0.00
6:54 pm 18:54 Mostly Cloudy 91 32.8 67 19.4 45 45 WNW 9 15 30.14 1021 10 16 0.00 0.00
7:54 pm 19:54 Mostly Cloudy 89 31.7 68 20 50 50 VRB 7 11 30.15 1021 10 16 0.00 0.00
8:54 pm 20:54 Mostly Cloudy 86 30 72 22.2 63 63 Calm 30.17 1022 10 16 0.00 0.00
9:54 pm 21:54 Mostly Cloudy 85 29.4 74 23.3 70 70 S 5 7 30.20 1023 10 16 0.00 0.00
10:54 pm 22:54 Cloudy with Light Rain 82 27.8 76 24.4 82 82 S 5 7 30.19 1022 10 16 0.00 0.03
11:54 pm 23:54 Cloudy 82 27.8 75 23.9 79 79 SSW 8 13 30.19 1022 10 16 0.00 0.03

Powered by AerisWeather